7 * 24
多渠道服务支持
STARLINK-37245(NORAD编号68547)是SpaceX星链(Starlink)星座的低轨互联网通信卫星。星链项目是SpaceX主导的全球卫星互联网系统,旨在通过近地轨道卫星群提供覆盖全球的高速网络服务,该星座已发展成为全球规模最大的低轨卫星互联网星座。 作为星链组网卫星之一,STARLINK-37245运行在近地轨道,参与构建覆盖偏远地区、海上、航空等场景的互联网络,支撑星链手机直连、海事通信、应急通信等业务拓展,延续了星链低成本规模化部署的特点,是SpaceX推进全球卫星互联网组网的组成部分。
美国
(US)
| 数据来源 | 国际轨道数据 |
| 星历时间: | 2026-09-10T12:41:30+0800 1天前 查看轨道信息 |
| 半长轴: | 6840.884km |
| 偏心率: | 0.0001216 |
| 轨道倾角: | 53.157° |
| 近地点辐角 | 83.838° |
| 升交点赤经 | 222.013° |
| 平近点角 | 276.277° |
| 近地点: | 461.915km |
| 远地点: | 463.579km |
| 周期: | 93.849分钟 |
| 每日圈数: | 15.343855 |